Location: Lourdes
(43.1000°N, 0.0500°W)
Time: 08:14:29
(UTC+00:00)

IRIDIUM 102 - Visible Passes

Search period start: 21 June 2021 00:00
Search period end: 01 July 2021 00:00
Orbit: 776 x 779 km, 86.4° (Epoch: 20 June)

Date Brightness Start Highest point End Pass type
(mag) Time Alt. Az. Time Alt. Az. Time Alt. Az.
21 Jun ? 01:48:43 10° N 01:53:42 43° E 01:58:04 13° SSE visible
21 Jun ? 03:30:06 10° NNW 03:34:06 23° W 03:38:05 10° SW visible
22 Jun ? 01:15:42 10° NNE 01:19:57 25° ENE 01:24:12 10° SE visible
22 Jun ? 02:55:58 10° NNW 03:00:48 40° W 03:04:45 15° SSW visible
23 Jun ? 00:43:23 10° NE 00:46:05 14° ENE 00:48:46 10° ESE visible
23 Jun ? 02:22:11 10° N 02:27:24 73° W 02:31:01 20° S visible
24 Jun ? 01:48:41 10° N 01:53:53 63° E 01:57:17 21° SSE visible
24 Jun ? 03:30:55 10° NW 03:34:00 16° WNW 03:37:05 10° WSW visible
25 Jun ? 01:15:27 10° NNE 01:20:13 35° E 01:23:34 17° SE visible
25 Jun ? 02:56:23 10° NNW 03:00:48 28° W 03:04:01 16° SW visible
26 Jun ? 00:42:38 10° NNE 00:46:25 20° ENE 00:49:52 11° ESE visible
26 Jun ? 02:22:24 10° NNW 02:27:27 51° W 02:30:19 24° SSW visible
27 Jun ? 00:11:07 10° NE 00:12:29 11° ENE 00:13:50 10° E visible
27 Jun ? 01:48:44 10° N 01:53:59 89° E 01:56:39 30° S visible
27 Jun ? 03:32:32 10° WNW 03:33:51 11° WNW 03:35:10 10° W visible
28 Jun ? 01:15:20 10° N 01:20:25 49° E 01:22:58 27° SE visible
28 Jun ? 02:56:59 10° NNW 03:00:43 20° W 03:03:25 14° WSW visible
29 Jun ? 00:42:14 10° NNE 00:46:42 28° ENE 00:49:19 19° ESE visible
29 Jun ? 02:22:44 10° NNW 02:27:27 35° W 02:29:45 24° SW visible
30 Jun ? 00:09:42 10° NE 00:12:51 16° ENE 00:15:40 11° ESE visible
30 Jun ? 01:48:53 10° N 01:54:04 64° W 01:56:07 36° SSW visible
